Eads, CO

6:00 AM MDT on September 02, 2015 (GMT -0600)
Kit Carson | | Change Station
CLOSE
Current Station
Personal Weather Station
Location: Kit Carson, CO
Elevation: 4301 ft
Nearby Weather Stations

Elev 4301 ft 38.77 °N, 102.79 °W | Updated 20 seconds ago

Clear
Clear
62.2 °F
Feels Like 62.2 °F
N
0.0
Wind Variable Wind from NNW
Gusts 4.0 mph

Today
High -- | Low -- °F
--% Chance of Precip.
Yesterday
High -- | Low -- °F
Precip. -- in
6:20 AM 7:19 PM
Waning Gibbous, 81% visible
Pressure 29.84 in
Visibility 9.0 miles
Clouds Clear
Dew Point 54 °F
Humidity 77%
Rainfall 0.00 in
Snow Depth Not available.
UV 0 out of 12
Pollen 10.60 out of 12
Air Quality Not available.
Flu Activity Not available.
METAR KLAA 021153Z AUTO 23008KT 9SM CLR 15/11 A2998 RMK AO2 SLP105 T01500111 10217 20133 53003 TSNO
Pressure 29.84 in
Visibility 9.0 miles
Clouds Clear
Dew Point 54 °F
Humidity 77%
Rainfall 0.00 in
Snow Depth Not available.
UV 0 out of 12
Pollen 10.60 out of 12
Air Quality Not available.
Flu Activity Not available.
METAR KLAA 021153Z AUTO 23008KT 9SM CLR 15/11 A2998 RMK AO2 SLP105 T01500111 10217 20133 53003 TSNO

10-Day Weather Forecast

×

Almanac

Astronomy

Sep. 02, 2015 Rise Set
Actual Time
Civil Twilight
Nautical Twilight
Astronomical Twilight
Moon
Length of Visible Light
Length of Day
Tomorrow will be .
, % of the Moon is Illuminated

Today's Extremes

State Highs State Lows

Community

WunderPhotos

Upload Photos

1,851,736 photos uploaded!

WunderBlogs® & News

Nearby

Air Quality

  Air Quality AQ Index Pollutant
Not available.

Snow Depth

Station Depth Elevation

Earthquake Activity

City Distance Mag. Time & Date
Minimum magnitude displayed is 2.5.

Coastal Water Temperatures

Place Temperature

Stations

Nearby Weather Stations

Station Location Temp. Windchill Dew Point Humidity Wind Precip. Elev Updated Type